www.pogodaiklimat.ru

Погода и климат >> Архив погоды >> Бразилия >> Парана >> Планарту


ПОГОДА в Планарту

  • Прогноз погоды в Планарту
  • Монитор погоды в Планарту

АРХИВ ПОГОДЫ в Планарту

Время (UTC), дата Ветер
(напр.,м/с)
 
Видим.   Явления Облачность Т
(С)
Тd
(С)
f
(%)
Тe
(С)
Тes
(С)
Комфортность P
(гПа)
Po
(гПа)
Тmin
(С)
Tmax
(С)
R
(мм)
R24
(мм)
S
(см)
22 12.08 штиль 0 н/о н/о +25.5 -22.9 3 +22 +22 комфорт 1014.2 968.9
23 12.08 штиль 0 н/о н/о +24.7 -23.5 3 +21 +21 комфорт 1015.2 969.8
00 13.08 штиль 0
{3}
н/о н/о +23.9 -24.0 3 +21 +21 комфорт 1016.0 970.4
01 13.08 ЮЗ 1
{4}
н/о н/о +22.8 -24.8 3 +20 +20 1017.1 971.3
02 13.08 штиль 0
{3}
н/о н/о +21.4 -25.7 3 +19 +19 1017.8 971.7
03 13.08 Ю 1
{4}
н/о н/о +20.0 +0.1 26 +22 +22 комфорт 1018.8 972.5
04 13.08 Ю 1
{5}
н/о н/о +19.2 +6.8 44 +21 +21 комфорт 1019.4 972.9
05 13.08 штиль 0
{6}
н/о н/о +17.7 -0.6 29 +18 +18 1020.2 973.5
06 13.08 Ю 1
{4}
н/о н/о +16.4 +2.8 40 +18 +18 1020.5 973.5
07 13.08 Ю 2
{5}
н/о н/о +15.6 +0.3 35 +16 +16 1021.1 974.0
08 13.08 ЮВ 3
{5}
н/о н/о +14.7 -30.2 3 +15 +15 1022.1 974.8
09 13.08 штиль 0
{6}
н/о н/о +12.9 -31.4 3 +13 +13 1023.0 975.4
10 13.08 штиль 0
{3}
н/о н/о +11.3 -32.5 3 +12 +12 1024.4 976.4
11 13.08 Ю 1
{3}
н/о н/о +13.1 -31.3 3 +15 +15 1025.4 977.7
12 13.08 ЮВ 2
{5}
н/о н/о +14.8 -30.2 3 +15 +15 1026.1 978.6
13 13.08 ЮВ 3
{6}
н/о н/о +17.0 -28.7 3 +17 +17 1026.5 979.4
14 13.08 ЮВ 3
{7}
н/о н/о +18.4 -27.7 3 +18 +18 1026.2 979.3
15 13.08 Ю 3
{7}
н/о н/о +19.2 -27.2 3 +19 +19 1025.9 979.1
16 13.08 ЮВ 4
{6}
н/о н/о +19.6 -26.9 3 +19 +19 1025.1 978.4
17 13.08 ЮВ 3
{6}
н/о н/о +20.6 -26.2 3 +20 +20 1024.1 977.6
18 13.08 Ю 3
{6}
н/о н/о +20.0 -26.6 3 +19 +19 1024.1 977.5
19 13.08 Ю 2
{5}
н/о н/о +19.1 -27.3 3 +19 +19 1024.6 977.9
20 13.08 Ю 2
{5}
н/о н/о +17.2 -28.5 3 +18 +18 1025.3 978.2
21 13.08 штиль 0
{5}
н/о н/о +14.9 -30.1 3 +15 +15 1026.2 978.7
22 13.08 Ю 3
{4}
н/о н/о +13.4 -31.1 3 +13 +13 1026.8 979.1
23 13.08 Ю 3
{4}
н/о н/о +12.0 -32.1 3 +11 +11 1028.0 980.0
00 14.08 штиль 0
{4}
н/о н/о +10.6 -33.0 3 +11 +11 1028.7 980.4
01 14.08 штиль 0
{3}
н/о н/о +9.8 -33.6 3 +10 +10 1029.5 981.0
02 14.08 штиль 0
{4}
н/о н/о +9.5 -33.8 3 +10 +10 1030.0 981.5
04 14.08 ЮВ 1
{4}
н/о н/о +8.0 -34.8 3 +10 +10 1030.2 981.4
05 14.08 штиль 0
{4}
н/о н/о +6.8 -35.7 3 +7 +7 1030.3 981.3
06 14.08 ЮВ 1
{4}
н/о н/о +6.3 -36.0 3 +7 +7 1029.9 980.8
07 14.08 штиль 0
{4}
н/о н/о +5.5 -36.5 3 +6 +6 1029.8 980.6
08 14.08 ЮВ 1
{3}
н/о н/о +4.9 -28.1 7 +6 +6 1029.8 980.5
09 14.08 штиль 0
{3}
н/о н/о +3.8 +4 +4 1030.3 980.8
10 14.08 штиль 0
{2}
н/о н/о +3.2 +4 +4 1030.6 981.0
11 14.08 В 2
{4}
н/о н/о +6.2 -5.7 42 +5 +5 1030.3 981.2
12 14.08 В 3
{5}
н/о н/о +8.9 -34.2 3 +8 +8 1030.1 981.5
14 14.08 В 2
{5}
н/о н/о +14.7 -30.2 3 +15 +15 1028.8 981.2
15 14.08 штиль 0
{4}
н/о н/о +16.3 -29.1 3 +16 +16 1027.9 980.6
16 14.08 штиль 0
{4}
н/о н/о +18.9 -27.4 3 +18 +18 1026.3 979.5
17 14.08 штиль 0
{3}
н/о н/о +19.4 -27.1 3 +19 +19 1025.1 978.4
18 14.08 штиль 0
{2}
н/о н/о +21.1 -25.9 3 +19 +19 1023.8 977.4
19 14.08 штиль 0
{4}
н/о н/о +21.3 -25.8 3 +19 +19 1023.0 976.7
20 14.08 штиль 0
{3}
н/о н/о +19.7 -26.8 3 +19 +19 1023.3 976.7
21 14.08 штиль 0 н/о н/о +17.3 -28.5 3 +17 +17 1024.2 977.2
22 14.08 штиль 0 н/о н/о +15.6 -29.6 3 +16 +16 1024.6 977.3
00 15.08 штиль 0 н/о н/о +11.6 -32.4 3 +12 +12 1025.8 977.8
02 15.08 В 3
{5}
н/о н/о +13.1 -31.3 3 +12 +12 1025.5 977.8
03 15.08 В 4
{6}
н/о н/о +13.1 -31.3 3 +12 +12 1025.3 977.6
04 15.08 В 4
{6}
н/о н/о +12.4 -31.8 3 +11 +11 1025.2 977.4
05 15.08 В 4
{6}
н/о н/о +11.4 -32.5 3 +10 +10 1025.4 977.4
06 15.08 В 3
{6}
н/о н/о +10.4 -33.2 3 +9 +9 1025.3 977.1
07 15.08 В 4
{7}
н/о н/о +9.7 -33.6 3 +8 +8 1025.2 976.9
08 15.08 В 4
{6}
н/о н/о +9.0 -34.1 3 +7 +7 1025.5 977.1
09 15.08 В 3
{7}
н/о н/о +8.3 -34.6 3 +7 +7 1026.4 977.8
10 15.08 В 3
{5}
н/о н/о +8.4 -34.6 3 +7 +7 1026.8 978.2
11 15.08 В 3
{5}
н/о н/о +10.3 -33.2 3 +9 +9 1026.7 978.5
12 15.08 В 4
{6}
н/о н/о +12.8 -31.5 3 +12 +12 1026.8 979.0
13 15.08 В 3
{5}
н/о н/о +16.1 -29.3 3 +16 +16 1026.4 979.1
14 15.08 В 3
{6}
н/о н/о +18.5 -27.7 3 +19 +19 1025.5 978.6
15 15.08 штиль 0
{5}
н/о н/о +20.9 -26.1 3 +19 +19 1024.4 978.0
16 15.08 штиль 0
{4}
н/о н/о +22.8 -24.7 3 +20 +20 1023.2 977.1
17 15.08 штиль 0
{3}
н/о н/о +23.9 -24.0 3 +21 +21 комфорт 1021.6 975.7
18 15.08 штиль 0
{3}
н/о н/о +24.9 -23.3 3 +21 +21 комфорт 1020.5 974.8
19 15.08 штиль 0
{4}
н/о н/о +25.3 -23.1 3 +22 +22 комфорт 1019.8 974.2
20 15.08 штиль 0 н/о н/о +24.3 -23.7 3 +21 +21 комфорт 1020.0 974.3
21 15.08 штиль 0 н/о н/о +21.6 -25.5 3 +19 +19 1020.2 974.1
22 15.08 штиль 0 н/о н/о +19.0 -27.3 3 +18 +18 1020.9 974.3
23 15.08 штиль 0 н/о н/о +19.2 -27.2 3 +19 +19 1021.0 974.5
00 16.08 штиль 0 н/о н/о +18.4 -27.7 3 +18 +18 1021.2 974.5
01 16.08 штиль 0 н/о н/о +18.1 -27.9 3 +18 +18 1021.3 974.6
02 16.08 штиль 0 н/о н/о +17.5 -28.3 3 +18 +18 1021.6 974.8
03 16.08 штиль 0
{3}
н/о н/о +18.3 -27.8 3 +18 +18 1021.3 974.6
05 16.08 В 2
{4}
н/о н/о +17.4 -28.4 3 +18 +18 1021.0 974.2
06 16.08 В 3
{4}
н/о н/о +16.9 -28.7 3 +17 +17 1021.0 974.1
07 16.08 В 1
{4}
н/о н/о +16.1 -21.1 6 +18 +18 1020.9 973.9
08 16.08 В 1
{3}
н/о н/о +15.6 -16.3 10 +17 +17 1021.1 974.0
09 16.08 В 2
{4}
н/о н/о +15.7 -15.2 11 +16 +16 1021.2 974.1
10 16.08 В 3
{4}
н/о н/о +16.4 -23.3 5 +16 +16 1021.5 974.5
11 16.08 В 2
{4}
н/о н/о +17.4 -28.4 3 +18 +18 1021.9 975.0
12 16.08 В 2
{4}
н/о н/о +18.9 -27.4 3 +19 +19 1021.8 975.2
13 16.08 В 3
{5}
н/о н/о +22.2 -25.1 3 +19 +19 1021.2 975.1
14 16.08 СВ 1
{4}
н/о н/о +24.3 -23.7 3 +21 +21 комфорт 1020.4 974.7
15 16.08 СВ 2
{4}
н/о н/о +26.8 -22.1 3 +23 +23 комфорт 1019.1 973.8
16 16.08 С 1
{5}
н/о н/о +28.3 -21.0 3 +24 +24 комфорт 1017.7 972.7
17 16.08 С 2
{5}
н/о н/о +28.7 -20.8 3 +24 +24 комфорт 1016.6 971.7
18 16.08 С 1
{4}
н/о н/о +28.6 -20.8 3 +24 +24 комфорт 1015.6 970.7
19 16.08 штиль 0
{4}
н/о н/о +28.4 -21.0 3 +24 +24 комфорт 1015.5 970.6
20 16.08 штиль 0
{2}
н/о н/о +27.7 -21.5 3 +23 +23 комфорт 1015.5 970.5
21 16.08 штиль 0 н/о н/о +25.9 -22.6 3 +22 +22 комфорт 1015.8 970.5
22 16.08 штиль 0 н/о н/о +23.3 -24.4 3 +20 +20 1016.1 970.4
23 16.08 штиль 0 н/о н/о +22.1 -25.2 3 +19 +19 1016.3 970.4
00 17.08 штиль 0 н/о н/о +21.5 -25.6 3 +19 +19 1016.5 970.5
01 17.08 штиль 0 н/о н/о +20.4 -26.3 3 +19 +19 1017.0 970.8
02 17.08 штиль 0
{3}
н/о н/о +19.1 -27.2 3 +18 +18 1017.0 970.6
03 17.08 штиль 0
{3}
н/о н/о +18.7 -27.5 3 +18 +18 1016.2 969.8
04 17.08 штиль 0
{2}
н/о н/о +17.9 -28.1 3 +18 +18 1016.2 969.7
05 17.08 штиль 0 н/о н/о +16.0 -29.3 3 +16 +16 1016.1 969.3
06 17.08 штиль 0 н/о н/о +15.8 -29.5 3 +16 +16 1015.3 968.5
07 17.08 штиль 0 н/о н/о +15.9 -29.4 3 +16 +16 1014.8 968.0
08 17.08 штиль 0 н/о н/о +15.2 -29.9 3 +15 +15 1014.8 967.9
09 17.08 штиль 0
{2}
н/о н/о +15.5 -29.7 3 +16 +16 1015.3 968.4
10 17.08 штиль 0
{3}
н/о н/о +15.5 -29.7 3 +16 +16 1015.7 968.8
11 17.08 штиль 0 н/о н/о +18.7 -27.5 3 +18 +18 1015.3 968.9
12 17.08 СВ 2
{4}
н/о н/о +21.5 -25.6 3 +19 +19 1014.9 969.0
13 17.08 В 1
{4}
н/о н/о +24.0 -24.0 3 +21 +21 комфорт 1014.6 969.1
14 17.08 штиль 0
{4}
н/о н/о +26.9 -22.0 3 +23 +23 комфорт 1013.7 968.6
15 17.08 С 1
{5}
н/о н/о +29.5 -20.2 3 +25 +25 комфорт 1012.3 967.7
16 17.08 С 1
{5}
н/о н/о +30.6 -19.5 3 +26 +26 жарко 1010.7 966.3
17 17.08
{5}
н/о н/о +30.3 -19.7 3 1009.6 965.2
18 17.08 С 1
{5}
н/о н/о +30.4 -19.6 3 +26 +26 жарко 1008.8 964.5
19 17.08 штиль 0
{5}
н/о н/о +29.9 -20.0 3 +25 +25 комфорт 1008.4 964.0
20 17.08 штиль 0
{2}
н/о н/о +28.5 -20.9 3 +24 +24 комфорт 1008.4 963.8
21 17.08 штиль 0 н/о н/о +25.6 -22.9 3 +22 +22 комфорт 1009.1 964.1
22 17.08 штиль 0 н/о н/о +24.0 -23.9 3 +21 +21 комфорт 1009.7 964.4
23 17.08 штиль 0
{2}
н/о н/о +23.9 -24.0 3 +21 +21 комфорт 1009.9 964.6
00 18.08 штиль 0 н/о н/о +23.5 -24.2 3 +20 +20 1010.3 964.9
01 18.08 штиль 0
{3}
н/о н/о +22.3 -25.1 3 +19 +19 1011.0 965.4
02 18.08 штиль 0
{2}
н/о н/о +21.6 -25.6 3 +19 +19 1011.5 965.8
03 18.08 штиль 0 н/о н/о +21.3 -25.7 3 +19 +19 1011.9 966.1
04 18.08 штиль 0 н/о н/о +20.5 -26.3 3 +19 +19 1011.8 965.9
05 18.08 штиль 0 н/о н/о +21.9 -25.4 3 +19 +19 1011.0 965.3
06 18.08 штиль 0 н/о н/о +21.4 -25.7 3 +19 +19 1011.0 965.2
07 18.08 штиль 0 н/о н/о +21.0 -26.0 3 +19 +19 1010.6 964.8
08 18.08 штиль 0
{2}
н/о н/о +20.8 -26.1 3 +19 +19 1010.6 964.8
09 18.08 штиль 0 н/о н/о +20.6 -26.2 3 +19 +19 1011.0 965.1
10 18.08 штиль 0 н/о н/о +20.8 -26.1 3 +19 +19 1011.7 965.8
11 18.08 штиль 0 н/о н/о +20.4 -26.4 3 +19 +19 1011.8 965.9
12 18.08 штиль 0
{2}
н/о н/о +22.2 -25.1 3 +19 +19 1012.1 966.4
13 18.08 штиль 0
{2}
н/о н/о +23.6 -24.2 3 +20 +20 1012.6 967.1
14 18.08 штиль 0 н/о н/о +25.9 -22.7 3 +22 +22 комфорт 1011.9 966.8
15 18.08 штиль 0
{3}
н/о н/о +28.0 -21.2 3 +24 +24 комфорт 1011.3 966.5
16 18.08 З 1
{4}
н/о н/о +28.6 -20.9 3 +24 +24 комфорт 1010.8 966.1
17 18.08 З 1
{5}
н/о н/о +29.1 -20.5 3 +25 +25 комфорт 1010.0 965.4
18 18.08 З 1
{5}
н/о н/о +28.2 -21.1 3 +24 +24 комфорт 1009.8 965.1
19 18.08 штиль 0
{3}
н/о н/о +27.1 -21.8 3 +23 +23 комфорт 1010.1 965.2
20 18.08 штиль 0
{1}
н/о н/о +26.1 -22.5 3 +22 +22 комфорт 1010.6 965.6
21 18.08 штиль 0
{2}
н/о н/о +25.0 -23.2 3 +21 +21 комфорт 1010.9 965.7
22 18.08 штиль 0
{2}
н/о н/о +23.2 -24.4 3 +20 +20 1011.4 965.9
23 18.08 ЮВ 2
{5}
н/о н/о +22.8 -24.8 3 +20 +20 1012.1 966.5
00 19.08 штиль 0
{5}
н/о н/о +21.9 -25.4 3 +19 +19 1013.4 967.6
01 19.08 штиль 0
{3}
н/о н/о +21.0 -25.9 3 +19 +19 1014.5 968.5
02 19.08 штиль 0 н/о н/о +20.3 -1.1 24 +20 +20 1014.9 968.8
03 19.08 ЮВ 1
{4}
н/о н/о +18.7 +19 +19 1015.3 968.9
04 19.08 ЮВ 2
{4}
н/о н/о +18.1 +19 +19 1015.8 969.3
05 19.08 ЮВ 3
{5}
н/о н/о +17.6 +18 +18 1015.4 968.9
06 19.08 ЮВ 2
{5}
н/о н/о +16.8 +17 +17 1014.9 968.3
08 19.08 штиль 0
{4}
н/о н/о +15.7 +16 +16 1014.9 968.1
09 19.08 штиль 0 н/о н/о +15.7 +16 +16 1015.4 968.6
10 19.08 штиль 0
{3}
н/о н/о +15.9 +16 +16 1016.5 969.6
11 19.08 штиль 0 н/о н/о +16.4 +10.9 70 +16 +16 1017.1 970.3
12 19.08 штиль 0
{3}
н/о н/о +15.8 -0.4 33 +16 +16 1017.9 971.0
13 19.08 ЮВ 1
{4}
н/о н/о +16.0 -21.6 6 +18 +18 1018.3 971.4
15 19.08 ЮВ 2
{4}
н/о н/о +20.4 -26.4 3 +20 +20 1016.5 970.3
17 19.08 штиль 0
{3}
н/о н/о +23.2 -24.5 3 +20 +20 1015.0 969.3
18 19.08 штиль 0
{3}
н/о н/о +23.7 -24.1 3 +20 +20 1014.6 969.0
20 19.08 ЮВ 2
{4}
н/о н/о +21.6 -25.5 3 +19 +19 1015.2 969.3
21 19.08 Ю 2
{4}
н/о н/о +19.8 -26.8 3 +19 +19 1016.1 969.9
22 19.08 штиль 0
{4}
н/о н/о +18.9 -27.4 3 +18 +18 1016.7 970.3

 

Местоположение метеостанции Планарту (Парана, Бразилия): широта -25.72 долгота -53.75 высота над уровнем моря 348 м.

В архиве по умолчанию представлена погода в Планарту за последнюю неделю. Архивные данные за месяц целиком и за предыдущие месяцы, начиная с января 2011 года, Вы можете получить, выбрав интересующий диапазон дат из раскрывающегося списка и нажав кнопку "Ввод!".


*Определитесь, кто Вы:
робот инопланетянин человек

Внимание! Время в таблицах - всемирное. Для получения местного времени необходимо прибавить поправку, которая равна -3 ч.

Смотрите также архив погоды в соседних городах и на ближайших метеорологических станциях:

Погода в Дионисио Серкейра (Парана, Бразилия) (63 км)
Погода в Дойс-Визиньюсе (Парана, Бразилия) (65 км)
Погода в Игуасу (Аргентина) (71 км)
Погода в Фос-ду-Игуасу (Парана, Бразилия) (74 км)
Погода в Фос-ду-Игуасу (Парана, Бразилия) (86 км)
Погода в Аэропорту Гуарани (Парагвай) (114 км)
Погода в Ново-Оризонти (Санта-Катарина, Бразилия) (118 км)
Погода в Сан-Мигель-ду-Осте (Санта-Катарина, Бразилия) (121 км)
Погода в Марешал-Кандиду-Рондоне (Парана, Бразилия) (135 км)
Погода в Кампина-да-Лагоа (Парана, Бразилия) (160 км)

Пояснения к столбцам:

Ветер - указаны скорость ветра в м/с - средняя за 10 мин, порывы в срок и между сроками (в фигурных скобках) и направление, откуда дует ветер: С - северный, СВ - северо-восточный, В - восточный, ЮВ - юго-восточный, Ю - южный, ЮЗ - юго-западный, З - западный, СЗ - северо-западный.
Видимость - горизонтальная дальность видимости в метрах или километрах. При видимости от 1 до 10 км при отсутствии осадков обычно наблюдается дымка, при ухудшении видимости до 1 км и менее - туман. В сухую погоду видимость может ухудшаться дымом, пылью или мглою.
Явления - указаны атмосферные явления, наблюдавшиеся в срок или в последний час перед сроком; фигурными скобками обозначены явления, наблюдавшиеся между сроками (за 1-3 часа до срока); квадратными скобками обозначены град или гололедные отложения с указанием их диаметра в мм.
Облачность - указаны через наклонную черту общая и нижняя облачность в баллах и высота нижней границы облаков в метрах; квадратными скобками обозначены формы облаков: Ci - перистые, Cs - перисто-слоистые, Cc - перисто-кучевые, Ac - высококучевые, As - высокослоистые, Sc - слоисто-кучевые, Ns - слоисто-дождевые, Cu - кучевые, Cb - кучево-дождевые. Подробнее классификацию облаков см. в Атласе облаков (PDF).
T - Температура воздуха - температура, измеренная на высоте 2 м над землей.
Td - Температура точки росы - температура, при понижении до которой содержащийся в воздухе водяной пар достигнет насыщения.
f - Относительная влажность воздуха - влажноcть воздуха, измеренная на высоте 2 м над землей.
Te - Эффективная температура - температура, которую ощущает одетый по сезону человек в тени. Характеристика душности погоды. При расчете учитывается влияние влажности воздуха и скорости ветра на теплоощущения человека.
Tes - Эффективная температура на солнце - температура, которую ощущает человек, с поправкой на солнечный нагрев. Характеристика знойности погоды. Зависит от высоты солнца над горизонтом, облачности и скорости ветра. Ночью, в пасмурную погоду, а также при ветре 12 м/с и более поправка равна нулю.
P - Атмосферное давление - приведенное к уровню моря атмосферное давление.
Po - Атмосферное давление - измеренное на уровне метеостанции атмосферное давление.
Tmin - Минимальная температура - минимум температуры воздуха на высоте 2 м над землей.
Tmax - Максимальная температура - максимум температуры воздуха на высоте 2 м над землей.
R - Количество осадков - Количество выпавших осадков за период времени, мм. При наведении курсора мыши на число - период времени, за который выпало указанное количество осадков.
R24 - Количество осадков - Количество выпавших осадков за 24 часа, мм.
S - Снежный покров - Высота снежного покрова, см. При наведении курсора мыши на число - состояние снежного покрова и степень покрытия местности в баллах.